User: anonymous
Location: La Vergne
(36.0160°N, 86.5820°W)
Time: 01:33:21
(UTC-05:00)
Language:

Cosmos 1703 Rocket - Orbit

View from above orbital plane
View from above orbital plane
View from above satellite
View from above satellite

Ground track
Ground track

The orbit data is extracted from the following two-line orbital elements,

1 16263U 85108B   14213.49308377  .00000409  00000-0  47975-4 0  7203
2 16263 082.5039 019.7066 0020139 203.4012 209.1897 14.82431750548685
Epoch (UTC): 01 August 2014 11:50:02
Eccentricity: 0.0020139
inclination: 82.5039°
perigee height: 607 km
apogee height: 636 km
right ascension of ascending node: 19.7066°
argument of perigee: 203.4012°
revolutions per day: 14.82431750
mean anomaly at epoch: 209.1897°
orbit number at epoch: 54868

The dashed part of the orbit path shows where the satellite is in the earth's shadow,  

DLR